Back to catalog

COSMOS 1285 DEB

LostHEO
NORAD 27799·DEBRIS·🇷🇺 Russia

Launched Aug 4, 1981 from Plesetsk Cosmodrome

Loading…

Next Passes (next 24 hours)

TLE

StaleSource: Space-Track

Epoch: Sep 5, 2022, 20:54 UTC

1 27799U 81071N   22248.87148758  .00000419  00000-0  00000+0 0  9990
2 27799  66.7790 197.1926 6260998  33.6227 359.0463  1.97788305158483

Track COSMOS 1285 DEB in real time with AllMySat

Download on the App Store